TimeCDT,TemperatureF,Dew PointF,Humidity,Sea Level PressureIn,VisibilityMPH,Wind Direction,Wind SpeedMPH,Gust SpeedMPH,PrecipitationIn,Events,Conditions,WindDirDegrees,DateUTC
12:56 AM,45.0,36.0,71,30.28,10.0,Calm,Calm,-,N/A,,Clear,0,2013-03-13 05:56:00
1:56 AM,46.0,37.0,71,30.30,10.0,North,6.9,-,N/A,,Clear,350,2013-03-13 06:56:00
2:56 AM,48.9,35.1,59,30.30,10.0,North,4.6,-,N/A,,Clear,350,2013-03-13 07:56:00
3:56 AM,50.0,35.1,57,30.31,10.0,NNW,4.6,-,N/A,,Clear,340,2013-03-13 08:56:00
4:56 AM,44.1,36.0,73,30.33,10.0,NW,3.5,-,N/A,,Clear,320,2013-03-13 09:56:00
5:56 AM,41.0,35.1,79,30.36,10.0,Calm,Calm,-,N/A,,Clear,0,2013-03-13 10:56:00
6:56 AM,43.0,36.0,76,30.38,10.0,NNE,4.6,-,N/A,,Clear,20,2013-03-13 11:56:00
7:56 AM,42.1,34.0,73,30.40,10.0,Calm,Calm,-,N/A,,Clear,0,2013-03-13 12:56:00
8:56 AM,48.9,35.1,59,30.43,10.0,ENE,6.9,-,N/A,,Clear,60,2013-03-13 13:56:00
9:56 AM,53.1,30.0,41,30.45,10.0,East,6.9,-,N/A,,Clear,80,2013-03-13 14:56:00
10:56 AM,55.9,27.0,33,30.46,10.0,NNE,6.9,-,N/A,,Clear,30,2013-03-13 15:56:00
11:10 AM,57.2,28.4,33,30.46,6.0,East,4.6,-,N/A,,Clear,90,2013-03-13 16:10:00
11:56 AM,60.1,26.1,27,30.46,10.0,Variable,5.8,-,N/A,,Clear,0,2013-03-13 16:56:00
12:56 PM,61.0,25.0,25,30.44,10.0,NNW,8.1,-,N/A,,Clear,340,2013-03-13 17:56:00
1:56 PM,63.0,25.0,24,30.42,10.0,Variable,3.5,-,N/A,,Partly Cloudy,0,2013-03-13 18:56:00
3:56 PM,66.9,27.0,22,30.37,10.0,North,11.5,-,N/A,,Partly Cloudy,10,2013-03-13 20:56:00
4:56 PM,66.9,27.0,22,30.36,10.0,North,4.6,-,N/A,,Partly Cloudy,360,2013-03-13 21:56:00
5:56 PM,66.0,27.0,23,30.35,10.0,NNE,4.6,-,N/A,,Partly Cloudy,30,2013-03-13 22:56:00
6:56 PM,62.1,28.9,29,30.35,10.0,NNE,5.8,-,N/A,,Partly Cloudy,30,2013-03-13 23:56:00
7:56 PM,57.9,30.0,35,30.36,10.0,NNE,5.8,-,N/A,,Partly Cloudy,20,2013-03-14 00:56:00
8:56 PM,55.9,32.0,40,30.37,10.0,Calm,Calm,-,N/A,,Clear,0,2013-03-14 01:56:00
9:56 PM,48.9,35.1,59,30.37,10.0,Calm,Calm,-,N/A,,Clear,0,2013-03-14 02:56:00
10:56 PM,48.0,34.0,58,30.38,10.0,Calm,Calm,-,N/A,,Clear,0,2013-03-14 03:56:00
11:56 PM,46.9,35.1,63,30.38,10.0,Calm,Calm,-,N/A,,Clear,0,2013-03-14 04:56:00